Station Historical Data
Daily Summary for December 21, 2017 Units:  English    Metric   Both
« Previous Day
Next Day »
Daily Weekly Monthly Yearly Custom
  High: Low: Average:
Temperature: TemperatureF °F 25.5 °F 28.5 °F
Dew Point: DewpointF °F 17.3 °F 20 °F
Humidity: Humidity% 60% 70%
Wind Speed: WindSpeedMPHmph 0.0mph 2.8mph
Wind Gust: WindSpeedGustMPHmph - -
Wind- - ESE
Pressure: PressureIn in 30.14 in -
Precipitation: 0.00 in    
Historical Graphs
 
 
Tabular Data for December 21, 2017
Time Temperature Dew Point Pressure Wind Wind Speed Wind Gust Humidity Rainfall Rate (Hourly)
TemperatureF °F DewpointF °F PressureIn in Calm     Humidity% HourlyPrecipIn in
00:04 27.9 °F 17.3 °F 30.14 in NW 2.0 mph 4.0 mph 64% 0.00 in
00:09 28.0 °F 17.4 °F 30.14 in NW 1.0 mph 4.0 mph 64% 0.00 in
00:19 27.9 °F 17.3 °F 30.14 in Calm   4.0 mph 64% 0.00 in
00:24 28.0 °F 17.7 °F 30.15 in Calm   3.0 mph 65% 0.00 in
00:29 27.9 °F 17.6 °F 30.15 in NW 1.0 mph 4.0 mph 65% 0.00 in
00:34 27.9 °F 17.6 °F 30.15 in NW 1.0 mph 4.0 mph 65% 0.00 in
00:39 27.9 °F 17.6 °F 30.14 in NW 2.0 mph 3.0 mph 65% 0.00 in
00:44 27.9 °F 17.6 °F 30.14 in NW 1.0 mph 2.0 mph 65% 0.00 in
00:49 27.9 °F 17.6 °F 30.14 in Calm   1.0 mph 65% 0.00 in
00:54 27.9 °F 18.0 °F 30.14 in Calm     66% 0.00 in
00:59 27.9 °F 18.0 °F 30.14 in Calm   5.0 mph 66% 0.00 in
01:04 27.9 °F 18.0 °F 30.15 in NW 1.0 mph 5.0 mph 66% 0.00 in
01:09 27.9 °F 18.0 °F 30.15 in NNW 1.0 mph 4.0 mph 66% 0.00 in
01:14 27.9 °F 18.0 °F 30.15 in NW 1.0 mph 4.0 mph 66% 0.00 in
01:19 27.8 °F 18.3 °F 30.15 in Calm   5.0 mph 67% 0.00 in
01:29 27.8 °F 18.3 °F 30.16 in Calm   3.0 mph 67% 0.00 in
01:39 27.8 °F 18.3 °F 30.16 in Calm   3.0 mph 67% 0.00 in
01:44 27.7 °F 18.2 °F 30.16 in NW 1.0 mph 3.0 mph 67% 0.00 in
01:59 27.5 °F 18.0 °F 30.17 in NW 1.0 mph 3.0 mph 67% 0.00 in
02:09 27.6 °F 18.4 °F 30.18 in NW 1.0 mph 5.0 mph 68% 0.00 in
02:14 27.5 °F 18.3 °F 30.18 in NW 3.0 mph 5.0 mph 68% 0.00 in
02:19 27.6 °F 18.4 °F 30.19 in NW 2.0 mph 6.0 mph 68% 0.00 in
02:24 27.6 °F 18.4 °F 30.19 in NW 1.0 mph 6.0 mph 68% 0.00 in
02:34 27.6 °F 18.4 °F 30.18 in NW 2.0 mph 3.0 mph 68% 0.00 in
02:39 27.7 °F 18.5 °F 30.18 in NW 2.0 mph 4.0 mph 68% 0.00 in
02:44 27.6 °F 18.4 °F 30.18 in NW 1.0 mph 4.0 mph 68% 0.00 in
02:49 27.6 °F 18.8 °F 30.18 in NNW 1.0 mph 4.0 mph 69% 0.00 in
02:54 27.6 °F 18.8 °F 30.19 in NNW 1.0 mph 5.0 mph 69% 0.00 in
02:59 27.6 °F 18.8 °F 30.19 in NNW 3.0 mph 4.0 mph 69% 0.00 in
03:04 27.6 °F 18.8 °F 30.19 in NNW 2.0 mph 7.0 mph 69% 0.00 in
03:09 27.6 °F 18.8 °F 30.19 in NNW 3.0 mph 7.0 mph 69% 0.00 in
03:14 27.6 °F 18.8 °F 30.19 in NNW 4.0 mph 7.0 mph 69% 0.00 in
03:19 27.6 °F 18.8 °F 30.18 in North 3.0 mph 7.0 mph 69% 0.00 in
03:24 27.6 °F 18.8 °F 30.19 in North 4.0 mph 6.0 mph 69% 0.00 in
03:29 27.6 °F 18.8 °F 30.19 in NNW 2.0 mph 5.0 mph 69% 0.00 in
03:34 27.6 °F 18.8 °F 30.20 in NW 1.0 mph 5.0 mph 69% 0.00 in
03:39 27.6 °F 18.8 °F 30.20 in NW 1.0 mph 3.0 mph 69% 0.00 in
03:44 27.6 °F 18.8 °F 30.20 in NW 4.0 mph 5.0 mph 69% 0.00 in
03:54 27.6 °F 18.8 °F 30.19 in NNE 3.0 mph 7.0 mph 69% 0.00 in
03:59 27.7 °F 18.8 °F 30.19 in North 3.0 mph 7.0 mph 69% 0.00 in
04:04 27.7 °F 18.8 °F 30.19 in North 2.0 mph 7.0 mph 69% 0.00 in
04:14 27.7 °F 18.8 °F 30.19 in NNW 3.0 mph 8.0 mph 69% 0.00 in
04:19 27.7 °F 18.8 °F 30.19 in NNW 2.0 mph 5.0 mph 69% 0.00 in
04:24 27.6 °F 18.8 °F 30.19 in NNW 2.0 mph 4.0 mph 69% 0.00 in
04:34 27.7 °F 19.2 °F 30.19 in North 1.0 mph 10.0 mph 70% 0.00 in
04:39 27.5 °F 19.0 °F 30.19 in ENE 7.0 mph 10.0 mph 70% 0.00 in
04:44 27.3 °F 19.1 °F 30.19 in NNE 3.0 mph 8.0 mph 71% 0.00 in
04:49 27.2 °F 19.0 °F 30.20 in NE 3.0 mph 8.0 mph 71% 0.00 in
04:59 26.9 °F 19.1 °F 30.20 in NE 3.0 mph 7.0 mph 72% 0.00 in
05:04 26.8 °F 19.0 °F 30.20 in NE 4.0 mph 6.0 mph 72% 0.00 in
05:09 26.7 °F 18.9 °F 30.20 in NE 5.0 mph 9.0 mph 72% 0.00 in
05:14 26.6 °F 18.8 °F 30.20 in ENE 8.0 mph 8.0 mph 72% 0.00 in
05:24 26.4 °F 18.6 °F 30.20 in NE 3.0 mph 8.0 mph 72% 0.00 in
05:29 26.3 °F 18.8 °F 30.21 in NE 3.0 mph 7.0 mph 73% 0.00 in
05:34 26.3 °F 18.8 °F 30.20 in NE 3.0 mph 7.0 mph 73% 0.00 in
05:39 26.3 °F 18.8 °F 30.20 in NE 2.0 mph 8.0 mph 73% 0.00 in
05:44 26.3 °F 18.8 °F 30.21 in NE 2.0 mph 7.0 mph 73% 0.00 in
05:49 26.2 °F 18.7 °F 30.21 in ENE 3.0 mph 7.0 mph 73% 0.00 in
05:54 26.1 °F 18.6 °F 30.21 in ENE 2.0 mph 5.0 mph 73% 0.00 in
05:59 26.1 °F 18.6 °F 30.21 in NE 2.0 mph 6.0 mph 73% 0.00 in
06:04 26.1 °F 18.6 °F 30.21 in NE 3.0 mph 6.0 mph 73% 0.00 in
06:09 26.1 °F 18.6 °F 30.21 in NE 2.0 mph 5.0 mph 73% 0.00 in
06:14 26.0 °F 18.5 °F 30.21 in ENE 2.0 mph 5.0 mph 73% 0.00 in
06:19 26.0 °F 18.5 °F 30.21 in ENE 2.0 mph 5.0 mph 73% 0.00 in
06:24 26.1 °F 18.6 °F 30.21 in ENE 1.0 mph 4.0 mph 73% 0.00 in
06:34 26.0 °F 18.5 °F 30.22 in ENE 1.0 mph 3.0 mph 73% 0.00 in
06:39 26.0 °F 18.5 °F 30.22 in ENE 1.0 mph 5.0 mph 73% 0.00 in
06:44 26.0 °F 18.5 °F 30.22 in East 2.0 mph 5.0 mph 73% 0.00 in
06:49 26.0 °F 18.5 °F 30.22 in ENE 1.0 mph 3.0 mph 73% 0.00 in
06:54 26.0 °F 18.5 °F 30.22 in ENE 2.0 mph 3.0 mph 73% 0.00 in
06:59 25.9 °F 18.4 °F 30.22 in ENE 1.0 mph 3.0 mph 73% 0.00 in
07:04 26.0 °F 18.5 °F 30.23 in ENE 1.0 mph 3.0 mph 73% 0.00 in
07:09 25.9 °F 18.4 °F 30.22 in ENE 1.0 mph 4.0 mph 73% 0.00 in
07:14 26.0 °F 18.5 °F 30.23 in ENE 2.0 mph 4.0 mph 73% 0.00 in
07:19 25.9 °F 18.7 °F 30.23 in ENE 2.0 mph 3.0 mph 74% 0.00 in
07:24 25.9 °F 18.7 °F 30.23 in ENE 1.0 mph 5.0 mph 74% 0.00 in
07:29 25.9 °F 18.7 °F 30.23 in ENE 2.0 mph 5.0 mph 74% 0.00 in
07:34 25.9 °F 18.7 °F 30.23 in ENE 1.0 mph 4.0 mph 74% 0.00 in
07:39 25.8 °F 18.7 °F 30.24 in ENE 1.0 mph 4.0 mph 74% 0.00 in
07:49 25.8 °F 18.7 °F 30.24 in ENE 2.0 mph 4.0 mph 74% 0.00 in
07:54 25.7 °F 18.6 °F 30.24 in ENE 3.0 mph 4.0 mph 74% 0.00 in
07:59 25.6 °F 18.5 °F 30.24 in ENE 3.0 mph 4.0 mph 74% 0.00 in
08:04 25.6 °F 18.5 °F 30.24 in ENE 2.0 mph 4.0 mph 74% 0.00 in
08:09 25.6 °F 18.5 °F 30.24 in ENE 1.0 mph 4.0 mph 74% 0.00 in
08:14 25.6 °F 18.5 °F 30.24 in ENE 1.0 mph 3.0 mph 74% 0.00 in
08:19 25.5 °F 18.7 °F 30.24 in ENE 2.0 mph 4.0 mph 75% 0.00 in
08:24 25.6 °F 18.8 °F 30.24 in ENE 1.0 mph 4.0 mph 75% 0.00 in
08:29 25.6 °F 18.8 °F 30.23 in ENE 3.0 mph 4.0 mph 75% 0.00 in
08:34 25.6 °F 18.8 °F 30.24 in ENE 3.0 mph 4.0 mph 75% 0.00 in
08:39 25.7 °F 18.9 °F 30.25 in ENE 2.0 mph 6.0 mph 75% 0.00 in
08:44 25.9 °F 19.1 °F 30.25 in ENE 2.0 mph 6.0 mph 75% 0.00 in
08:49 26.1 °F 19.3 °F 30.24 in ENE 2.0 mph 4.0 mph 75% 0.00 in
08:54 26.3 °F 19.5 °F 30.24 in ENE 2.0 mph 4.0 mph 75% 0.00 in
08:59 26.6 °F 19.4 °F 30.25 in Calm   5.0 mph 74% 0.00 in
09:04 26.8 °F 19.6 °F 30.25 in ENE 1.0 mph 5.0 mph 74% 0.00 in
09:09 26.8 °F 19.6 °F 30.25 in ENE 3.0 mph 4.0 mph 74% 0.00 in
09:14 26.7 °F 19.5 °F 30.26 in ENE 2.0 mph 5.0 mph 74% 0.00 in
09:19 26.8 °F 19.6 °F 30.27 in ENE 2.0 mph 5.0 mph 74% 0.00 in
09:24 26.9 °F 19.7 °F 30.27 in ENE 2.0 mph 4.0 mph 74% 0.00 in
09:29 26.9 °F 19.4 °F 30.26 in ENE 1.0 mph 3.0 mph 73% 0.00 in
09:39 27.2 °F 19.7 °F 30.27 in Calm   3.0 mph 73% 0.00 in
09:44 27.6 °F 19.8 °F 30.27 in Calm   3.0 mph 72% 0.00 in
09:49 27.4 °F 19.6 °F 30.26 in ENE 1.0 mph 3.0 mph 72% 0.00 in
09:54 27.6 °F 19.8 °F 30.26 in ENE 1.0 mph 3.0 mph 72% 0.00 in
09:59 27.8 °F 19.9 °F 30.27 in East 1.0 mph 3.0 mph 72% 0.00 in
10:09 27.9 °F 20.0 °F 30.27 in Calm   5.0 mph 72% 0.00 in
10:14 28.3 °F 20.4 °F 30.27 in East 3.0 mph 3.0 mph 72% 0.00 in
10:19 28.8 °F 20.9 °F 30.27 in Calm   3.0 mph 72% 0.00 in
10:24 29.2 °F 21.0 °F 30.27 in East 1.0 mph 3.0 mph 71% 0.00 in
10:29 29.3 °F 21.1 °F 30.27 in East 1.0 mph 3.0 mph 71% 0.00 in
10:34 29.2 °F 20.6 °F 30.27 in East 1.0 mph 3.0 mph 70% 0.00 in
10:44 29.8 °F 20.9 °F 30.26 in East 1.0 mph 3.0 mph 69% 0.00 in
10:49 30.6 °F 21.6 °F 30.26 in SE 2.0 mph 4.0 mph 69% 0.00 in
10:54 30.9 °F 21.6 °F 30.26 in SE 2.0 mph 4.0 mph 68% 0.00 in
10:59 30.6 °F 21.3 °F 30.26 in SE 1.0 mph 4.0 mph 68% 0.00 in
11:04 31.5 °F 21.8 °F 30.26 in SSE 1.0 mph 4.0 mph 67% 0.00 in
11:09 30.9 °F 20.9 °F 30.26 in SSE 1.0 mph 4.0 mph 66% 0.00 in
11:19 31.4 °F 21.3 °F 30.26 in Calm   2.0 mph 66% 0.00 in
11:29 31.9 °F 21.8 °F 30.25 in SSE 1.0 mph 4.0 mph 66% 0.00 in
11:34 32.0 °F 21.6 °F 30.26 in NNE 2.0 mph 4.0 mph 65% 0.00 in
11:39 32.7 °F 21.9 °F 30.25 in North 2.0 mph 4.0 mph 64% 0.00 in
11:44 32.1 °F 21.7 °F 30.24 in North 1.0 mph 3.0 mph 65% 0.00 in
11:49 31.9 °F 21.1 °F 30.25 in Calm   3.0 mph 64% 0.00 in
11:54 32.0 °F 21.6 °F 30.24 in NE 3.0 mph 6.0 mph 65% 0.00 in
11:59 32.2 °F 21.4 °F 30.24 in NNE 5.0 mph 5.0 mph 64% 0.00 in
12:04 32.0 °F 20.8 °F 30.24 in NE 2.0 mph 5.0 mph 63% 0.00 in
12:09 31.5 °F 20.7 °F 30.23 in NNE 2.0 mph 5.0 mph 64% 0.00 in
12:14 30.8 °F 20.0 °F 30.23 in Calm   4.0 mph 64% 0.00 in
12:19 30.8 °F 20.0 °F 30.23 in ENE 3.0 mph 4.0 mph 64% 0.00 in
12:24 31.4 °F 21.0 °F 30.23 in Calm   3.0 mph 65% 0.00 in
12:29 31.7 °F 20.5 °F 30.23 in ENE 2.0 mph 3.0 mph 63% 0.00 in
12:34 32.7 °F 21.5 °F 30.23 in ESE 2.0 mph 5.0 mph 63% 0.00 in
12:39 33.0 °F 21.0 °F 30.22 in ESE 2.0 mph 5.0 mph 61% 0.00 in
12:44 33.5 °F 21.1 °F 30.22 in East 2.0 mph 5.0 mph 60% 0.00 in
12:49 33.8 °F 22.1 °F 30.22 in NE 2.0 mph 6.0 mph 62% 0.00 in
12:54 33.9 °F 21.9 °F 30.23 in NNE 3.0 mph 7.0 mph 61% 0.00 in
12:59 33.8 °F 21.4 °F 30.22 in NE 4.0 mph 7.0 mph 60% 0.00 in
13:04 33.2 °F 21.6 °F 30.22 in NE 4.0 mph 9.0 mph 62% 0.00 in
13:09 32.7 °F 21.5 °F 30.22 in ENE 5.0 mph 8.0 mph 63% 0.00 in
13:14 32.3 °F 21.5 °F 30.22 in NE 4.0 mph 8.0 mph 64% 0.00 in
13:19 31.8 °F 20.6 °F 30.23 in Calm   5.0 mph 63% 0.00 in
13:24 32.7 °F 21.9 °F 30.22 in NE 3.0 mph 6.0 mph 64% 0.00 in
13:29 32.6 °F 21.0 °F 30.22 in East 3.0 mph 6.0 mph 62% 0.00 in
13:34 32.6 °F 21.4 °F 30.23 in East 2.0 mph 6.0 mph 63% 0.00 in
13:39 32.2 °F 20.6 °F 30.23 in NE 3.0 mph 6.0 mph 62% 0.00 in
13:44 32.0 °F 20.8 °F 30.23 in NE 3.0 mph 6.0 mph 63% 0.00 in
13:49 31.9 °F 20.7 °F 30.23 in NE 3.0 mph 6.0 mph 63% 0.00 in
13:54 31.7 °F 20.5 °F 30.23 in NE 2.0 mph 5.0 mph 63% 0.00 in
13:59 31.6 °F 20.4 °F 30.23 in ENE 2.0 mph 5.0 mph 63% 0.00 in
14:04 31.7 °F 20.5 °F 30.23 in ENE 1.0 mph 3.0 mph 63% 0.00 in
14:09 32.1 °F 20.9 °F 30.23 in Calm   3.0 mph 63% 0.00 in
14:19 31.9 °F 20.7 °F 30.23 in ENE 1.0 mph 5.0 mph 63% 0.00 in
14:24 31.8 °F 20.6 °F 30.22 in NE 2.0 mph 6.0 mph 63% 0.00 in
14:29 31.6 °F 20.4 °F 30.22 in NE 2.0 mph 7.0 mph 63% 0.00 in
14:34 31.5 °F 20.3 °F 30.22 in NE 2.0 mph 6.0 mph 63% 0.00 in
14:39 31.6 °F 20.8 °F 30.22 in NNE 2.0 mph 4.0 mph 64% 0.00 in
14:44 31.7 °F 20.5 °F 30.22 in NE 4.0 mph 6.0 mph 63% 0.00 in
14:49 31.7 °F 20.5 °F 30.22 in NE 3.0 mph 6.0 mph 63% 0.00 in
14:54 31.7 °F 20.9 °F 30.23 in NE 2.0 mph 7.0 mph 64% 0.00 in
14:59 31.8 °F 20.6 °F 30.23 in NE 3.0 mph 7.0 mph 63% 0.00 in
15:04 31.8 °F 20.6 °F 30.24 in NE 3.0 mph 7.0 mph 63% 0.00 in
15:09 31.6 °F 20.4 °F 30.24 in NE 3.0 mph 7.0 mph 63% 0.00 in
15:14 31.6 °F 20.4 °F 30.24 in ENE 3.0 mph 7.0 mph 63% 0.00 in
15:19 31.5 °F 20.7 °F 30.24 in NE 1.0 mph 7.0 mph 64% 0.00 in
15:24 31.6 °F 20.4 °F 30.24 in NE 3.0 mph 7.0 mph 63% 0.00 in
15:29 31.6 °F 20.8 °F 30.24 in NE 3.0 mph 8.0 mph 64% 0.00 in
15:34 31.4 °F 20.2 °F 30.24 in NE 5.0 mph 10.0 mph 63% 0.00 in
15:39 31.3 °F 20.2 °F 30.25 in NE 5.0 mph 10.0 mph 63% 0.00 in
15:44 31.2 °F 20.4 °F 30.25 in NE 4.0 mph 8.0 mph 64% 0.00 in
15:49 31.2 °F 20.4 °F 30.24 in NE 6.0 mph 8.0 mph 64% 0.00 in
15:54 31.2 °F 20.4 °F 30.24 in NE 4.0 mph 8.0 mph 64% 0.00 in
15:59 31.1 °F 20.3 °F 30.24 in ENE 3.0 mph 8.0 mph 64% 0.00 in
16:04 31.0 °F 20.2 °F 30.24 in NE 3.0 mph 8.0 mph 64% 0.00 in
16:09 31.0 °F 20.6 °F 30.24 in NE 2.0 mph 8.0 mph 65% 0.00 in
16:14 30.8 °F 20.4 °F 30.24 in NE 3.0 mph 8.0 mph 65% 0.00 in
16:24 30.6 °F 20.2 °F 30.24 in ENE 4.0 mph 7.0 mph 65% 0.00 in
16:29 30.5 °F 20.5 °F 30.24 in NE 7.0 mph 7.0 mph 66% 0.00 in
16:39 30.6 °F 20.6 °F 30.24 in NE 5.0 mph 9.0 mph 66% 0.00 in
16:44 30.6 °F 20.6 °F 30.24 in ENE 4.0 mph 9.0 mph 66% 0.00 in
16:49 30.6 °F 20.6 °F 30.24 in NE 3.0 mph 5.0 mph 66% 0.00 in
16:59 30.4 °F 20.7 °F 30.25 in NE 9.0 mph 9.0 mph 67% 0.00 in
17:04 30.4 °F 20.7 °F 30.25 in NE 4.0 mph 10.0 mph 67% 0.00 in
17:09 30.3 °F 20.6 °F 30.25 in NE 4.0 mph 10.0 mph 67% 0.00 in
17:14 30.2 °F 20.6 °F 30.25 in NE 5.0 mph 10.0 mph 67% 0.00 in
17:19 30.2 °F 20.6 °F 30.26 in NE 4.0 mph 10.0 mph 67% 0.00 in
17:24 30.1 °F 20.1 °F 30.25 in NE 5.0 mph 9.0 mph 66% 0.00 in
17:29 30.1 °F 20.5 °F 30.26 in NE 5.0 mph 9.0 mph 67% 0.00 in
17:34 30.1 °F 20.5 °F 30.26 in NE 6.0 mph 10.0 mph 67% 0.00 in
17:39 30.1 °F 20.1 °F 30.25 in NE 4.0 mph 10.0 mph 66% 0.00 in
17:44 30.1 °F 20.5 °F 30.26 in ENE 3.0 mph 8.0 mph 67% 0.00 in
17:49 30.0 °F 20.4 °F 30.25 in NE 2.0 mph 8.0 mph 67% 0.00 in
17:54 30.1 °F 20.5 °F 30.25 in NE 5.0 mph 8.0 mph 67% 0.00 in
17:59 30.0 °F 20.4 °F 30.26 in NE 5.0 mph 11.0 mph 67% 0.00 in
18:04 29.9 °F 20.3 °F 30.26 in NE 7.0 mph 11.0 mph 67% 0.00 in
18:09 29.8 °F 20.5 °F 30.26 in NNE 4.0 mph 9.0 mph 68% 0.00 in
18:14 29.8 °F 20.5 °F 30.26 in NE 5.0 mph 11.0 mph 68% 0.00 in
18:19 29.8 °F 20.5 °F 30.26 in NE 5.0 mph 11.0 mph 68% 0.00 in
18:24 29.8 °F 20.5 °F 30.26 in ENE 3.0 mph 10.0 mph 68% 0.00 in
18:29 29.7 °F 20.4 °F 30.26 in ENE 5.0 mph 10.0 mph 68% 0.00 in
18:34 29.7 °F 20.4 °F 30.25 in ENE 4.0 mph 11.0 mph 68% 0.00 in
18:39 29.6 °F 20.3 °F 30.26 in ENE 4.0 mph 10.0 mph 68% 0.00 in
18:44 29.6 °F 20.3 °F 30.26 in NNE 6.0 mph 12.0 mph 68% 0.00 in
18:49 29.6 °F 20.3 °F 30.26 in NE 5.0 mph 12.0 mph 68% 0.00 in
18:54 29.6 °F 20.3 °F 30.26 in NE 5.0 mph 11.0 mph 68% 0.00 in
18:59 29.6 °F 20.3 °F 30.26 in ENE 4.0 mph 11.0 mph 68% 0.00 in
19:04 29.6 °F 20.3 °F 30.26 in ENE 4.0 mph 9.0 mph 68% 0.00 in
19:09 29.6 °F 20.3 °F 30.26 in NE 4.0 mph 11.0 mph 68% 0.00 in
19:14 29.5 °F 20.2 °F 30.26 in ESE 3.0 mph 8.0 mph 68% 0.00 in
19:19 29.5 °F 20.2 °F 30.26 in ENE 4.0 mph 10.0 mph 68% 0.00 in
19:29 29.3 °F 20.0 °F 30.26 in East 10.0 mph 13.0 mph 68% 0.00 in
19:34 29.3 °F 20.0 °F 30.26 in ENE 2.0 mph 10.0 mph 68% 0.00 in
19:39 29.2 °F 19.9 °F 30.26 in NE 6.0 mph 10.0 mph 68% 0.00 in
19:44 29.2 °F 19.9 °F 30.25 in East 2.0 mph 11.0 mph 68% 0.00 in
19:49 29.1 °F 19.8 °F 30.25 in East 5.0 mph 9.0 mph 68% 0.00 in
19:54 29.2 °F 20.3 °F 30.25 in ENE 4.0 mph 9.0 mph 69% 0.00 in
20:04 29.1 °F 20.2 °F 30.25 in ENE 5.0 mph 10.0 mph 69% 0.00 in
20:09 29.0 °F 20.1 °F 30.25 in ENE 5.0 mph 11.0 mph 69% 0.00 in
20:19 28.6 °F 20.4 °F 30.25 in ENE 5.0 mph 10.0 mph 71% 0.00 in
20:24 28.4 °F 20.5 °F 30.24 in ENE 2.0 mph 11.0 mph 72% 0.00 in
20:29 28.1 °F 20.9 °F 30.24 in ENE 2.0 mph 11.0 mph 74% 0.00 in
20:34 27.9 °F 21.0 °F 30.24 in ENE 1.0 mph 10.0 mph 75% 0.00 in
20:39 27.7 °F 21.4 °F 30.23 in East 6.0 mph 10.0 mph 77% 0.00 in
20:44 27.6 °F 21.6 °F 30.23 in East 3.0 mph 10.0 mph 78% 0.00 in
20:49 27.4 °F 21.7 °F 30.23 in ESE 2.0 mph 6.0 mph 79% 0.00 in
20:54 27.3 °F 21.9 °F 30.22 in ENE 8.0 mph 10.0 mph 80% 0.00 in
20:59 27.2 °F 21.8 °F 30.23 in East 4.0 mph 10.0 mph 80% 0.00 in
21:04 26.9 °F 21.6 °F 30.23 in East 5.0 mph 14.0 mph 80% 0.00 in
21:09 27.0 °F 21.9 °F 30.23 in East 5.0 mph 14.0 mph 81% 0.00 in
21:14 26.9 °F 21.8 °F 30.23 in ENE 4.0 mph 12.0 mph 81% 0.00 in
21:19 26.8 °F 21.8 °F 30.23 in ENE 5.0 mph 12.0 mph 81% 0.00 in
21:24 26.8 °F 22.0 °F 30.23 in ENE 5.0 mph 10.0 mph 82% 0.00 in
21:29 26.8 °F 22.0 °F 30.23 in ENE 2.0 mph 10.0 mph 82% 0.00 in
21:34 26.7 °F 22.2 °F 30.23 in ENE 4.0 mph 10.0 mph 83% 0.00 in
21:39 26.6 °F 22.1 °F 30.23 in East 7.0 mph 9.0 mph 83% 0.00 in
21:44 26.6 °F 22.4 °F 30.22 in East 4.0 mph 9.0 mph 84% 0.00 in
21:49 26.6 °F 22.4 °F 30.22 in ENE 3.0 mph 11.0 mph 84% 0.00 in
21:54 26.6 °F 22.4 °F 30.22 in ENE 3.0 mph 10.0 mph 84% 0.00 in
21:59 26.5 °F 22.3 °F 30.22 in ENE 5.0 mph 10.0 mph 84% 0.00 in
22:04 26.4 °F 22.5 °F 30.22 in ENE 4.0 mph 10.0 mph 85% 0.00 in
22:14 26.4 °F 22.5 °F 30.22 in ENE 3.0 mph 7.0 mph 85% 0.00 in
22:19 26.4 °F 22.5 °F 30.22 in NE 2.0 mph 7.0 mph 85% 0.00 in
22:24 26.4 °F 22.5 °F 30.22 in ESE 4.0 mph 7.0 mph 85% 0.00 in
22:29 26.3 °F 22.7 °F 30.22 in ENE 4.0 mph 9.0 mph 86% 0.00 in
22:34 26.2 °F 22.6 °F 30.22 in NE 2.0 mph 7.0 mph 86% 0.00 in
22:39 26.2 °F 22.6 °F 30.22 in ENE 4.0 mph 10.0 mph 86% 0.00 in
22:44 26.2 °F 22.6 °F 30.21 in ENE 5.0 mph 10.0 mph 86% 0.00 in
22:49 26.1 °F 22.5 °F 30.21 in ENE 4.0 mph 10.0 mph 86% 0.00 in
22:59 26.1 °F 22.8 °F 30.21 in ENE 5.0 mph 9.0 mph 87% 0.00 in
23:04 26.1 °F 22.8 °F 30.21 in ENE 4.0 mph 9.0 mph 87% 0.00 in
23:09 26.1 °F 22.8 °F 30.21 in ENE 4.0 mph 7.0 mph 87% 0.00 in
23:14 26.1 °F 22.8 °F 30.21 in NE 6.0 mph 9.0 mph 87% 0.00 in
23:19 26.1 °F 22.8 °F 30.21 in ENE 4.0 mph 10.0 mph 87% 0.00 in
23:24 26.0 °F 22.7 °F 30.20 in NE 4.0 mph 10.0 mph 87% 0.00 in
23:29 25.9 °F 22.6 °F 30.20 in ENE 5.0 mph 10.0 mph 87% 0.00 in
23:34 25.9 °F 22.6 °F 30.20 in ENE 4.0 mph 8.0 mph 87% 0.00 in
23:39 25.9 °F 22.6 °F 30.19 in NE 5.0 mph 9.0 mph 87% 0.00 in
23:44 25.9 °F 22.6 °F 30.19 in ENE 4.0 mph 9.0 mph 87% 0.00 in
23:49 25.9 °F 22.6 °F 30.19 in ENE 4.0 mph 8.0 mph 87% 0.00 in
23:54 25.9 °F 22.6 °F 30.18 in ENE 4.0 mph 10.0 mph 87% 0.00 in
23:59 25.8 °F 22.5 °F 30.18 in ENE 5.0 mph 10.0 mph 87% 0.00 in
Buffalo, New York, USA
Compliments of Weather Underground - 2.25 mb